FW4161 Weather Reports


time (UTC)temp
C
wind
direction
speed
KPH
gust
KPH
rain 1hr
cm
rain 24hr
cm
rain mn
cm
humidity
%
barometer
mb
20260505100016 11 0.0 0.0 0.00 0.00 0.00 86 1012.0
20260505093016 10 0.0 0.0 0.00 0.00 0.00 84 1011.8
20260505090015 11 0.0 0.0 0.00 0.00 0.00 84 1011.0
20260505083036 10 0.0 0.0 0.00 0.00 0.00 82 1010.9
20260505080018 11 0.0 0.0 0.00 0.00 0.00 78 1010.9
20260505073017 11 0.0 0.0 0.00 0.00 0.00 77 1011.0
20260505070017 11 0.0 0.0 0.00 0.00 0.00 75 1010.8
20260505063017 13 0.0 3.2 0.00 0.00 0.00 72 1010.9
20260505060017 13 0.0 3.2 0.00 0.00 0.00 69 1010.9
20260505053017 14 0.0 3.2 0.00 0.00 0.00 68 1011.0
20260505040017 15 0.0 3.2 0.00 0.00 0.00 61 1011.2
20260505033015 16 203 1.6 6.4 0.00 0.00 0.00 55 1011.1
20260505030036 17 203 3.2 6.4 0.00 0.00 0.00 51 1011.3
20260505023016 17 203 1.6 6.4 0.00 0.00 0.00 49 1011.3
20260505020015 17 248 1.6 4.8 0.00 0.00 0.00 50 1011.6
20260505013017 17 0.0 0.0 0.00 0.00 0.00 49 1011.2
20260505010017 17 0.0 0.0 0.00 0.00 0.00 46 1010.9
20260505003017 18 0.0 0.0 0.00 0.00 0.00 45 1010.5
20260505000017 19 248 1.6 6.4 0.00 0.00 0.00 43 1010.2
20260504233017 20 248 3.2 12.9 0.00 0.00 0.00 41 1009.9
20260504230017 21 225 3.2 9.7 0.00 0.00 0.00 39 1009.8
20260504223017 22 248 3.2 11.3 0.00 0.00 0.00 37 1009.8
20260504220017 22 248 4.8 19.3 0.00 0.00 0.00 36 1009.7
20260504213017 23 248 4.8 19.3 0.00 0.00 0.00 34 1010.0
20260504210017 22 270 4.8 17.7 0.00 0.00 0.00 36 1010.1
20260504203017 22 248 4.8 16.1 0.00 0.00 0.00 35 1010.0
20260504200016 22 270 4.8 17.7 0.00 0.00 0.00 34 1010.2
20260504193017 22 248 6.4 19.3 0.00 0.00 0.00 33 1010.7
20260504190016 22 270 8.0 20.9 0.00 0.00 0.00 34 1010.9
20260504183016 22 270 6.4 20.9 0.00 0.00 0.00 35 1011.5
20260504180017 21 248 6.4 27.4 0.00 0.00 0.00 35 1011.9
20260504173016 20 248 8.0 20.9 0.00 0.00 0.00 38 1012.2